Location: Cachorro Sentado
(19.9240°S, 44.0541°W)
Time: 22:00:20
(UTC+00:00)

Daily predictions for brighter satellites

Satellite Brightness Start Highest point End
(mag) Time Altitude Azimuth Time Altitude Azimuth Time Altitude Azimuth
Cosmos 1464 Rocket 4.3 20:57:22 10° SSE 21:03:29 46° E 21:09:31 10° NNE
DMSP B5D1-3 4.5 20:59:33 10° NNE 21:04:35 69° ESE 21:09:41 10° S
CZ-3B R/B 3.8 20:52:55 10° WNW 21:07:11 59° NNE 21:12:43 10° E
Cosmos 1939 Rocket 3.2 21:04:02 10° SSE 21:07:53 46° E 21:11:46 10° N
Cosmos 2346 Rocket 4.5 21:01:54 10° N 21:07:58 82° E 21:14:09 10° S
ERS-2 3.0 21:04:56 10° NE 21:08:06 29° ESE 21:11:18 10° SSE
FALCON 9 DEB 4.5 21:05:46 10° SW 21:08:43 38° NW 21:11:37 10° NNE
Delta 198 4.5 21:03:55 10° W 21:10:35 75° SSW 21:16:24 10° ESE
Cosmos 1346 Rocket 4.0 21:08:34 10° NE 21:11:37 22° E 21:14:43 10° SE
CZ-4 R/B 3.4 21:11:59 10° E 21:12:17 10° E 21:12:34 10° E
Cosmos 1697 Rocket 2.8 21:07:31 10° N 21:13:01 58° ENE 21:18:35 10° SSE
SAR-Lupe-4 4.1 21:09:43 10° NE 21:13:03 37° ESE 21:16:24 10° S
Cosmos 1980 Rocket 3.2 21:09:25 10° NNE 21:13:53 25° ENE 21:18:22 10° SE
Cosmos 2360 4.4 21:11:27 10° N 21:16:55 51° ENE 21:22:25 10° SSE
Cosmos 1606 Rocket 4.3 21:13:31 10° SSE 21:17:33 32° E 21:21:31 10° NE
SMAP 3.6 21:12:59 10° S 21:17:39 66° WSW 21:22:15 10° NNW
USA 267 3.4 21:11:29 10° SE 21:17:59 60° NE 21:24:25 10° NNW
Cosmos 2227 Rocket 3.9 21:16:54 10° SE 21:18:49 12° ESE 21:19:41 11° ESE
Cosmos 1513 Rocket 4.4 21:13:34 10° S 21:19:45 72° E 21:25:57 10° N
Lacrosse 5 2.2 21:15:01 10° NNW 21:19:52 47° ENE 21:24:46 10° SE
Star 37E S/N 40062 4.3 21:11:24 10° WNW 21:20:20 79° SSW 21:22:56 13° ESE
DELTA 2 R/B(2) 4.3 21:18:07 10° NW 21:21:09 40° NNE 21:22:22 17° E
Cosmos 2251 Rocket 4.0 21:17:14 10° S 21:22:14 38° ESE 21:27:11 10° NE
Radarsat Rocket 4.3 21:15:29 10° SSE 21:22:22 81° WSW 21:28:27 10° NNW
GEOS 3 Rocket 4.0 21:19:19 10° SSE 21:24:31 69° WSW 21:29:47 10° NW
USA 32 4.0 21:19:23 10° S 21:24:38 72° E 21:29:50 10° N
GPS 2-17 Rocket1 3.3 21:20:45 10° WNW 21:25:32 65° NNE 21:29:14 16° E
Geosat 4.2 21:20:49 10° SE 21:25:44 53° ENE 21:30:36 10° N
CZ-2C R/B 3.0 21:21:03 10° SSE 21:26:09 59° E 21:30:58 10° N
Cosmos 2297 Rocket 3.4 21:22:25 10° SSE 21:26:27 20° ESE 21:29:45 12° ENE
CZ-2D R/B 3.6 21:22:51 10° SSE 21:26:35 43° E 21:30:16 10° N
Cosmos 304 Rocket 4.1 21:22:57 10° NNW 21:27:45 71° WSW 21:32:35 10° S
Cosmos 1726 Rocket 4.2 21:23:58 10° SSE 21:28:01 32° E 21:31:59 10° NNE
Cosmos 2219 4.5 21:25:21 10° SSE 21:29:12 18° ESE 21:31:11 16° E
Cosmos 1624 Rocket 4.0 21:25:32 10° N 21:30:47 70° ENE 21:36:03 10° SSE
ISS -1.0 21:30:02 10° W 21:32:20 17° SW 21:34:39 10° S
SAR-Lupe-1 4.0 21:28:47 10° NNE 21:32:21 87° ESE 21:35:59 10° S
OAO 3 Rocket 3.5 21:28:40 10° WNW 21:33:16 59° SSW 21:37:06 15° SE
Cosmos 2228 3.0 21:29:26 10° S 21:33:51 67° E 21:38:11 10° NNE
Tsikada Rocket 3.9 21:28:32 10° N 21:34:46 80° E 21:40:59 10° S
Cosmos 1300 3.8 21:34:06 10° SSW 21:37:49 47° W 21:41:27 10° NNW
RESURS DK-1 3.5 21:34:25 10° SSW 21:38:22 45° WNW 21:42:18 10° N
Cosmos 1626 Rocket 4.2 21:41:08 10° NNE 21:45:10 34° E 21:49:00 11° SSE
DELTA 2 R/B (1) 4.3 21:40:12 10° SW 21:45:17 35° SSE 21:47:38 25° ESE
Cosmos 2056 Rocket 3.6 21:41:00 10° NNW 21:46:16 80° WSW 21:51:40 10° S
Cosmos 1452 Rocket 4.4 21:42:12 10° NNE 21:46:28 25° E 21:47:06 25° E
ARGOS 4.1 21:45:52 23° E 21:46:54 25° E 21:51:13 10° NNE
Cosmos 2084 Rocket 3.3 21:42:44 10° SSW 21:46:55 59° ESE 21:50:11 15° NE
GPS 2-18 Rocket1 3.0 21:45:16 10° WNW 21:48:57 70° N 21:50:16 37° E
H-2A R/B 3.6 21:46:16 10° S 21:50:10 43° WSW 21:53:54 10° NNW
Cosmos 2058 Rocket 3.4 21:50:12 10° SSE 21:54:23 39° E 21:58:29 10° NNE
Cosmos 614 Rocket 3.9 21:51:18 10° S 21:56:29 60° ESE 22:01:36 10° NNE
Meteor 1-21 Rocket 4.1 21:51:16 10° N 21:56:50 86° E 22:02:32 10° S
CZ-4B R/B 4.3 21:52:56 10° S 21:58:05 44° WSW 22:03:07 10° NW
Feng Yun 1-1 Rocket 4.3 21:55:50 10° SSE 22:01:47 78° ENE 22:07:34 10° N
Fermi 3.7 22:01:50 10° WSW 22:05:54 77° NNW 22:06:41 56° NE
Okean O Rocket 3.8 22:07:07 10° SSW 22:10:49 27° WSW 22:14:30 10° NW
Cosmos 1455 4.4 22:07:31 10° S 22:08:13 15° S 22:08:13 15° S
Cosmos 407 Rocket 4.2 22:12:12 10° S 22:15:31 34° SSE 22:15:31 34° SSE
H-2A R/B 2.0 22:12:22 10° SSE 22:17:46 88° WSW 22:22:57 10° NNW
ASTRO E2 3.9 22:17:41 10° SW 22:20:26 32° SSW 22:20:26 32° SSW
ATLAS 2A CENTAUR R/B 4.2 21:25:35 10° WNW 22:22:12 83° SSW 22:28:08 36° ESE
Orbus 21S 3.4 22:05:41 10° W 22:23:35 64° S 22:24:32 53° SE
NOAA 15 4.4 22:21:49 37° SSE 22:23:57 74° ENE 22:29:13 10° N
Cosmos 1703 4.5 22:22:56 10° NNW 22:26:37 41° W 22:30:21 10° SSW
CZ-2C R/B 3.7 22:24:43 10° NNW 22:24:51 11° N 22:24:51 11° N
Cosmos 2278 4.1 22:21:56 10° NNW 22:27:30 63° WSW 22:32:11 15° S
MOS 1-B Rocket 4.0 22:20:34 10° NNE 22:27:38 85° ESE 22:33:44 10° S
YAOGAN 1 3.0 22:34:07 56° NW 22:34:07 56° NW 22:37:36 10° NNW
COSMOS 2455 3.5 22:34:06 10° SSW 22:38:10 42° S 22:38:10 42° S
Meteosat 1 Rocket2 4.1 22:40:52 10° WNW 22:46:31 78° SSW 22:47:11 72° SSE
CZ-4 R/B 2.9 22:47:01 34° WSW 22:47:13 34° WSW 22:50:59 10° NW
NOSS 2-1 (C) 4.3 22:41:21 10° SSW 22:47:59 74° W 22:47:59 74° W
SL-16 R/B 4.5 22:51:48 10° N 22:52:17 12° N 22:52:17 12° N
Cosmos 1980 Rocket 4.1 22:53:02 10° NW 22:57:38 26° WSW 23:02:17 10° SSW
Lacrosse 5 4.3 22:59:47 10° W 23:02:56 16° SW 23:04:33 14° SSW
Cosmos 2227 Rocket 3.0 22:57:28 10° SSW 23:01:37 45° SW 23:01:37 45° SW
Lacrosse 4 Rocket 4.2 22:59:53 10° NW 23:00:17 12° NW 23:00:17 12° NW
BREEZE-M DEB (TANK) 4.3 22:42:46 10° NW 23:06:32 85° SW 23:07:33 71° SSE
Cosmos 2297 Rocket 3.6 23:05:20 10° SW 23:10:24 34° WNW 23:11:46 30° NW
Cosmos 2219 4.5 23:08:08 10° SW 23:13:17 37° WNW 23:13:17 37° WNW
Centaur D AC-28 3.5 22:53:30 10° WSW 23:20:29 70° S 23:20:29 70° S
Milstar 3 4.3 23:23:35 10° WSW 23:40:00 50° NW 23:41:38 47° NNW
